Location: Peebles
(55.6412°N, 3.1714°W)
Time: 11:39:52
(UTC+00:00)

deb Kosmos-1275 - Pass Details

Date: 30 November 2022
Orbit: 808 x 888 km, 83.0° (Epoch: 01 February)

Event Time Altitude Azimuth Distance (km) Brightness Sun altitude
Rises 06:53:44 0° 350° (N) 3,459 ? -10.7°
Reaches altitude 10° 06:56:22 10° 358° (N) 2,505 ? -10.4°
Maximum altitude 07:01:41 40° 68° (ENE) 1,223 ? -9.7°
Drops below altitude 10° 07:06:52 10° 138° (SE) 2,437 ? -9.0°
Sets 07:09:22 0° 145° (SE) 3,355 ? -8.7°
